TimeEST,TemperatureF,Dew PointF,Humidity,Sea Level PressureIn,VisibilityMPH,Wind Direction,Wind SpeedMPH,Gust SpeedMPH,PrecipitationIn,Events,Conditions,WindDirDegrees,DateUTC
12:10 AM,32.0,28.4,87,30.19,2.5,SW,4.6,-,0.00,Snow,Light Snow,220,2013-11-26 05:10:00
12:20 AM,32.0,28.4,87,30.20,1.5,WSW,6.9,-,0.00,Snow,Light Snow,240,2013-11-26 05:20:00
12:28 AM,32.0,28.4,87,30.20,3.0,WSW,4.6,-,0.01,Snow,Light Snow,240,2013-11-26 05:28:00
12:47 AM,32.0,28.4,87,30.19,2.5,WSW,3.5,-,0.01,Snow,Light Snow,250,2013-11-26 05:47:00
12:51 AM,32.0,28.9,88,30.22,3.0,WSW,4.6,-,0.01,Snow,Light Snow,240,2013-11-26 05:51:00
1:28 AM,32.0,28.4,87,30.20,7.0,WSW,3.5,-,0.00,Snow,Light Snow,240,2013-11-26 06:28:00
1:51 AM,32.0,28.9,88,30.22,2.5,Calm,Calm,-,0.00,Snow,Light Snow,0,2013-11-26 06:51:00
2:18 AM,32.0,28.4,87,30.18,1.8,SSW,3.5,-,0.00,Snow,Light Snow,200,2013-11-26 07:18:00
2:24 AM,32.0,30.2,93,30.18,1.5,Calm,Calm,-,0.00,Snow,Light Snow,0,2013-11-26 07:24:00
2:31 AM,32.0,30.2,93,30.18,1.0,Calm,Calm,-,0.01,Snow,Light Snow,0,2013-11-26 07:31:00
2:35 AM,32.0,30.2,93,30.17,1.0,Calm,Calm,-,0.01,Snow,Light Snow,0,2013-11-26 07:35:00
2:51 AM,32.0,28.9,88,30.21,0.8,South,4.6,-,0.02,Snow,Light Snow,180,2013-11-26 07:51:00
2:56 AM,32.0,28.4,87,30.18,1.0,Calm,Calm,-,0.00,Snow,Light Snow,0,2013-11-26 07:56:00
3:06 AM,32.0,30.2,93,30.18,1.2,South,5.8,-,0.01,Snow,Light Snow,180,2013-11-26 08:06:00
3:13 AM,32.0,30.2,93,30.18,1.8,South,3.5,-,0.01,Snow,Light Snow,190,2013-11-26 08:13:00
3:21 AM,32.0,30.2,93,30.17,2.0,South,3.5,-,0.01,Snow,Light Snow,190,2013-11-26 08:21:00
3:51 AM,32.0,30.0,92,30.20,2.0,SSW,3.5,-,0.01,Snow,Light Snow,210,2013-11-26 08:51:00
4:51 AM,32.0,30.0,92,30.17,2.0,Calm,Calm,-,0.00,Snow,Light Snow,0,2013-11-26 09:51:00
5:25 AM,32.0,30.2,93,30.14,2.0,South,3.5,-,0.00,Snow,Light Snow,170,2013-11-26 10:25:00
5:51 AM,32.0,30.0,92,30.16,2.0,South,4.6,-,0.00,Snow,Light Snow,190,2013-11-26 10:51:00
5:58 AM,33.8,30.2,87,30.14,6.0,SSE,4.6,-,0.00,Snow,Light Snow,150,2013-11-26 10:58:00
6:24 AM,33.8,30.2,87,30.13,6.0,South,4.6,-,0.00,Snow,Light Snow,180,2013-11-26 11:24:00
6:51 AM,33.1,30.0,89,30.16,5.0,South,5.8,-,0.00,,Overcast,170,2013-11-26 11:51:00
7:51 AM,33.1,30.0,89,30.13,4.0,Calm,Calm,-,N/A,,Overcast,0,2013-11-26 12:51:00
8:51 AM,33.1,30.0,89,30.14,5.0,Calm,Calm,-,N/A,,Overcast,0,2013-11-26 13:51:00
9:26 AM,33.8,30.2,87,30.10,1.8,Calm,Calm,-,0.00,Snow,Light Snow,0,2013-11-26 14:26:00
9:51 AM,33.1,30.0,89,30.12,1.8,SSE,3.5,-,0.01,Snow,Light Snow,150,2013-11-26 14:51:00
10:51 AM,33.1,30.9,92,30.13,1.8,Calm,Calm,-,0.00,Snow,Light Snow,0,2013-11-26 15:51:00
11:51 AM,34.0,30.9,89,30.07,1.8,SE,3.5,-,0.02,Snow,Light Snow,130,2013-11-26 16:51:00
12:05 PM,33.8,30.2,87,30.05,3.0,Calm,Calm,-,0.00,Snow,Light Snow,0,2013-11-26 17:05:00
12:51 PM,34.0,30.9,89,30.05,6.0,Calm,Calm,-,N/A,Snow,Light Snow,0,2013-11-26 17:51:00
1:17 PM,35.6,30.2,81,29.99,6.0,Calm,Calm,-,0.00,Snow,Light Snow,0,2013-11-26 18:17:00
1:51 PM,35.1,30.0,82,30.00,7.0,Calm,Calm,-,0.00,Snow,Light Snow,0,2013-11-26 18:51:00
2:46 PM,33.8,30.2,87,29.96,1.8,NNW,5.8,-,0.00,Snow,Light Snow,330,2013-11-26 19:46:00
2:51 PM,34.0,30.0,85,29.98,1.8,North,4.6,-,0.00,Snow,Light Snow,350,2013-11-26 19:51:00
3:51 PM,34.0,30.9,89,29.96,1.2,North,4.6,-,0.02,Snow,Light Snow,10,2013-11-26 20:51:00
4:08 PM,33.8,30.2,87,29.93,0.5,North,4.6,-,0.00,Snow,Light Snow,360,2013-11-26 21:08:00
4:51 PM,33.1,30.9,92,29.96,0.8,NNW,3.5,-,0.02,Snow,Light Snow,340,2013-11-26 21:51:00
5:04 PM,33.8,30.2,87,29.94,0.5,North,4.6,-,0.01,Snow,Light Snow,350,2013-11-26 22:04:00
5:51 PM,33.1,30.0,89,29.92,0.5,NNW,9.2,-,0.04,Snow,Light Snow,340,2013-11-26 22:51:00
6:01 PM,33.8,30.2,87,29.91,0.5,NNW,8.1,-,0.01,Snow,Light Snow,340,2013-11-26 23:01:00
6:51 PM,32.0,30.0,92,29.93,0.5,North,9.2,-,0.03,Snow,Light Snow,350,2013-11-26 23:51:00
7:51 PM,32.0,28.9,88,29.93,0.5,NNW,10.4,-,0.05,Snow,Light Snow,340,2013-11-27 00:51:00
8:42 PM,30.2,28.4,93,29.90,1.5,NNW,5.8,-,0.03,Snow,Light Snow,340,2013-11-27 01:42:00
8:51 PM,32.0,28.9,88,29.92,1.5,NNW,4.6,-,0.03,Snow,Light Snow,340,2013-11-27 01:51:00
9:17 PM,32.0,28.4,87,29.89,1.5,NNW,4.6,-,0.00,Snow,Light Snow,330,2013-11-27 02:17:00
9:31 PM,32.0,28.4,87,29.89,3.0,NW,8.1,-,0.00,Snow,Light Snow,320,2013-11-27 02:31:00
9:51 PM,32.0,28.0,85,29.91,4.0,NNW,8.1,-,0.00,Snow,Light Snow,330,2013-11-27 02:51:00
9:58 PM,32.0,28.4,87,29.89,4.0,NNW,6.9,-,0.00,,Overcast,330,2013-11-27 02:58:00
10:51 PM,32.0,27.0,82,29.90,5.0,NNW,10.4,-,0.00,,Haze,330,2013-11-27 03:51:00
11:51 PM,32.0,27.0,82,29.89,6.0,NNW,10.4,-,N/A,,Haze,330,2013-11-27 04:51:00